Regional Weather Roundup
Issued by NWS Cleveland, OH

Home | Current Version | Previous Version | Graphics & Text | Print | Product List | Glossary On
Versions: 1 2 3 4 5 6 7 8 9 10 11 12 13 14 15 16 17 18 19 20 21 22 23 24 25 26 27 28 29 30 31 32 33 34 35 36 37 38 39 40 41 42 43 44 45 46 47 48 49 50
979
ASUS41 KCLE 230012
RWRCLE
OHIO REGIONAL WEATHER ROUNDUP
NATIONAL WEATHER SERVICE WILMINGTON, OH
800 PM EDT FRI SEP 22 2017

NOTE: "FAIR" INDICATES FEW OR NO CLOUDS BELOW 12,000 FEET WITH NO
SIGNIFICANT WEATHER AND/OR OBSTRUCTIONS TO VISIBILITY.

OHZ001>008-015>018-024>027-034-035-043-044-230100-
   NORTHWEST OHIO

CITY           SKY/WX    TMP DP  RH WIND       PRES   REMARKS
DEFIANCE       FAIR      81  69  67 E3        30.07S
FINDLAY        FAIR      82  65  56 NE7       30.07R
TOLEDO EXPRESS FAIR      77  72  84 E3        30.07F
TOLEDO EXEC    FAIR      78  65  63 E3        30.08F
LIMA           FAIR      78  68  71 NE5       30.07S
$$

OHZ009>014-019>023-028>033-038-089-230100-
   NORTHEAST OHIO

CITY           SKY/WX    TMP DP  RH WIND       PRES   REMARKS
CLE-HOPKINS    FAIR      80  61  52 NE7       30.10S
CLE-LAKEFRONT  FAIR      73  66  78 NE6       30.07S
CUY CO. ARPT   PTCLDY    73  64  73 CALM      30.10S
LORAIN-ELYRIA  FAIR      71  59  65 NE5       30.09S
ASHTABULA      FAIR      67  60  78 CALM      30.11S
AKRON-CANTON   MOCLDY    76  58  53 NE6       30.10R
WOOSTER        FAIR      67  65  93 CALM      30.10S
MANSFIELD      FAIR      76  64  66 N6        30.11R
YOUNGSTOWN     MOCLDY    70  63  78 NE5       30.10S
$$

OHZ042-051>053-060>062-070>072-077>081-230100-
  SOUTHWEST OHIO

CITY           SKY/WX    TMP DP  RH WIND       PRES   REMARKS
CINC-COVINGTON FAIR      78  69  73 CALM      30.05S
CINC-LUNKEN    FAIR      75  71  87 CALM      30.04R
HAMILTON       FAIR      74  70  87 CALM      30.05S
DAYTON         FAIR      80  64  58 E5        30.07S
WRIGHT-PAT AFB PTCLDY    82  64  53 CALM      30.05S
DAYTON GENERAL FAIR      81  65  58 E5        30.06R
WILMINGTON     FAIR      76  66  71 CALM      30.07R
$$

OHZ036-037-039>041-045>050-054>059-063>069-073>076-082>088-230100-
  CENTRAL AND SOUTHEAST OHIO

CITY           SKY/WX    TMP DP  RH WIND       PRES   REMARKS
COLUMBUS       FAIR      82  67  60 N5        30.06R
OSU AIRPORT    FAIR      79  68  69 CALM      30.06S
BOLTON FIELD   FAIR      75  70  83 SW8       30.07R
RICKENBACK AFB FAIR      78  65  65 CALM      30.05S
NEWARK         FAIR      74  66  76 CALM      30.07R
MARION         FAIR      75  61  61 E5        30.08R
LANCASTER      FAIR      73  67  81 CALM      30.07R
ZANESVILLE     FAIR      78  65  63 N3        30.07R
NEW PHILLY     FAIR      78  64  61 N3        30.09R
$$




USA.gov is the U.S. government's official web portal to all federal, state and local government web resources and services.